User: anonymous   Login
Location: Gollag?dem
(16.8053°N, 80.8024°E)
Time: 02:25:30
(UTC+00:00)
Language:

HJ-1C - Orbit

View from above orbital plane
View from above orbital plane
View from above satellite
View from above satellite

Ground track
Ground track

The orbit data is extracted from the following two-line orbital elements,

1 38997U 12064A   20302.48338576 +.00003292 +00000-0 +77002-4 0  9996
2 38997 097.1444 330.0929 0007840 238.5095 257.5869 15.42823853446292
Epoch (UTC): 28 October 2020 11:36:04
Eccentricity: 0.0007840
inclination: 97.1444°
perigee height: 432 km
apogee height: 443 km
right ascension of ascending node: 330.0929°
argument of perigee: 238.5095°
revolutions per day: 15.42823853
mean anomaly at epoch: 257.5869°
orbit number at epoch: 44629

The dashed part of the orbit path shows where the satellite is in the earth's shadow,  

DLR